Regional Weather Roundup
Issued by NWS Newport/Morehead, NC

Current Version | Previous Version | Graphics & Text | Print | Product List | Glossary On
Versions: 1 2 3 4 5 6 7 8 9 10 11 12 13 14 15 16 17 18 19 20 21 22 23 24 25 26 27 28 29 30 31 32 33 34 35 36 37 38 39 40 41 42 43 44 45 46 47 48 49 50
000
ASUS42 KMHX 190412
RWRMHX
WEATHER ROUNDUP FOR EASTERN NORTH CAROLINA
NATIONAL WEATHER SERVICE NEWPORT/MOREHEAD CITY NC
1200 AM EDT SUN APR 19 2015

NOTE: "FAIR" INDICATES FEW OR NO CLOUDS BELOW 12,000 FEET
WITH NO SIGNIFICANT WEATHER AND/OR OBSTRUCTIONS TO VISIBILITY

NCZ015>017-031-032-045>047-102-103-190500-
NORTH COAST

CITY           SKY/WX    TMP DP  RH WIND       PRES   REMARKS
EDENTON        MOCLDY    62  60  94 CALM      30.02R FOG
ELIZABETH CITY MOCLDY    58  57  97 NE3       30.03R
KITTY HAWK     CLOUDY    59  58  97 CALM      30.01R
MANTEO         CLOUDY    61  59  95 CALM      30.02R

$$

NCZ045>047-081-094-103-104-190500-
CENTRAL COAST

CITY           SKY/WX    TMP DP  RH WIND       PRES   REMARKS
FRISCO         MOCLDY    62  61  96 NE6       30.01R
SWANQUARTER      N/A     66 N/A N/A E3        29.97S

$$

NCZ095-097-098-100-101-190500-
SOUTHERN COAST

CITY           SKY/WX    TMP DP  RH WIND       PRES   REMARKS
BEAUFORT       PTCLDY    64  63  96 NE3       30.01R
CEDAR ISLAND     N/A     68 N/A N/A N7        30.06R
JACKSONVILLE   CLOUDY    66  64  93 CALM      30.00S
PINEY ISLAND   MOCLDY   N/A N/A N/A NE6       30.01R
WILMINGTON     MOCLDY    65  63  93 CALM      30.00S


$$

NCZ011>013-027>030-043-044-078>080-089-090>093-098-190500-
COASTAL PLAIN

CITY           SKY/WX    TMP DP  RH WIND       PRES   REMARKS
AHOSKIE        PTCLDY    60  59  96 N3        30.04R
CLINTON        MOCLDY    65  65  98 CALM      30.02R
ELIZABETHTOWN  CLOUDY    66  66 100 CALM      30.01S
GOLDSBORO      CLOUDY    67  62  84 NE6       30.00R
GREENVILLE     CLOUDY    64  64 100 CALM      30.05R
HAVELOCK       MOCLDY    64  61  90 CALM      30.02R
KENANSVILLE    CLOUDY    65  64  96 CALM      30.01F
KINSTON        CLOUDY    65  64  96 CALM      30.02F
NEW BERN       CLOUDY    65  63  93 CALM      30.02R
RICHLANDS      CLOUDY    64  61  88 CALM      30.01S
ROCKY MOUNT    LGT RAIN  66  65  96 CALM      30.03S FOG
WASHINGTON     CLOUDY    65  64  96 CALM      30.02S
WHITEVILLE     CLOUDY    65  64  96 CALM      30.00S

$$

AMZ130-135-150-152-154-156-158-170-250-252-270-ANZ085-086-088-633-658-670-190500-
MARINE OBSERVATIONS

STATION/POSITION TIME  TEMP    WIND        PRES    WAVE   SWELL
                       AIR SEA DIR/SP/G            HT/PER HT/PER
                 (UTC) (F)     (DEG/KT/KT) (MB)    (FT/S) (FT/S)
CHESAPEAKE LIGHT 0400   57     150/  3/  3 1017.6
64 E VA BEACH    0350   57 54  340/  4/  6 1016.4    4/ 8   3/ 8
DUCK             0300   58 57  140/  5/  5 1015.2
2 E DUCK         0311      56                N/A     3/13   2/13
10 NE DUCK       NOT AVBL
OREGON INLET     0300   58 68   40/  5/  5 1016.0
HATTERAS CG      0300   65 67   30/  7/  9 1015.3
DIAMOND BUOY     0350   69 76   20/ 10/ 12 1016.0    4/12   3/12
CAPE LOOKOUT     0400   68      20/  3/  4 1015.7
BEAUFORT LAB     0300   66 63   CALM  /  1 1015.0
27 SE WRIGHTSVLE NOT AVBL
5 SE WRIGHTSVLE  NOT AVBL
225 S CAPE HAT   0350   72 75  200/  2/  4 1015.3    5/14   5/14
41 SE CHARLESTON 0350   73 75  160/  4/  4 1014.7    3/ 8   3/ 8

$$



USA.gov is the U.S. government's official web portal to all federal, state and local government web resources and services.